Showing default

YAMAL 401, 40345

Orbit data source: Space-Track

YAMAL 401, 40345 is a payload satellite owned by Gazprom KS (CIS) in GEO that was launched on Mon, 15 Dec 2014 UTC via a PROTON-M/BRIZ-M launch vehicle from the Tyuratam Missile And Space Complex (TTMTR). Payload-class satellites include a variety of spacecraft equipped with specific instruments for various scientific and technological missions. These include communications satellites like Starlink; space stations such as the ISS; scientific satellites like the Hubble; Earth observation satellites from companies like Planet Labs, Umbra, and HawkEye 360; GPS; miniature CubeSats for education and research; and military/defense satellites.

Not visible in the next 10 days
Identifier
40345, 2014-082A
Orbit
GEO
Last TLE update
19 hours ago
Origin
Manufacturer
Resehetnev ISS
Mission
Operational Commercial Communications
Bus & Motor
EKSPRESS-2000, AOCS
Mass
2,976 kg wet, 2,500 kg dry
Launch date (UTC)
2014-12-15 (11 years ago)
Launch vehicle
PROTON-M/BRIZ-M
Launch site
Tyuratam Missile And Space Complex (TTMTR)
Object type
Payload
Rocket body
Debris
Shape & HBR
Box + 2 Pan, 35 m
Radar Cross Section
29.721 m², Large (>1 m²)

Expand to show TLE details & history

TLE from 19 hours ago
0 YAMAL 401
1 40345U 14082A   25187.29639777 -.00000213  00000-0  00000-0 0  9991
2 40345   0.0241  21.8330 0000079 288.7955 170.5550  1.00274276 38454
Epoch: 2025-07-06T07:06Z
TLE epoch observation values (Epoch: 2025-07-06T07:06:48.767Z)
Latitude
0.04576°
Longitude
89.96014°
Altitude
35,785.711 km
Speed
3.075 km/s
True Right ascension
08h 04m 44s
True Declination
0° 02' 45"
Sunlit
Object was in daylight at epoch
Visualization orbit readout
Latitude
0.02795°
Longitude
23.01409°
Altitude
35,785.527 km
Speed
3.075 km/s
Apparent Right ascension
03h 30m 43s
Apparent Declination
-4° 56' 05"
Sunlit
Object is in daylight
Visualization observer readout
Local Sidereal Time
14:36:36
Azimuth
337.242° NNW
Elevation
-52.953°
Doppler factor
1
Orbital elements
Apogee altitude
35,787.3 km
Perigee altitude
35,786.634 km
Semi-major axis
42,165.104 km
Eccentricity
0.00001
Inclination
0.0241°
RAAN
21.833°
Arg. of periapsis
288.7955°
True anomaly
Unknown
Mean anomaly
170.555°
Eccentric anomaly
Unknown
Mean motion
0.25068 °/min
Orbital period
1,436.11 mins
BSTAR
0
Loading historical data...
40345 neighbors
Loading maneuver chart data...
Loading SW <> Apogee altitude chart data...
Loading historical data...
Loading historical data...
Loading historical data...
Loading historical data...
Loading historical data...
Loading historical data...
Loading historical data...
Other satellites on launch #82 in the year 2014 (2014-12-15 UTC)

YAMAL 401 Visibility

Observer location: undefined°, undefined°

YAMAL 401 is likely not visible in the next few days
Span
Click to sort rows by Start time (UTC) header in descending order
Start Az.
Max El. time (UTC)
Max El. Az.
Max El.
End time (UTC)
End Az.
|